This is the latest recevied weather packets stored in our database for station/object FRA485-13. If no packets are shown the sender has not sent any weather packets the latest 1 day(s).
| Time | Temp. | Humidity | Pressure | Rain* | Wind** | Luminosity | Snow |
|---|---|---|---|---|---|---|---|
| 1778155267 | 13.89° C | 58% | 101.6 hPa | 0 mm | - | - | - |
| 1778153767 | 14.44° C | 58% | 101.6 hPa | 0 mm | - | - | - |
| 1778152266 | 15° C | 65% | 101.6 hPa | 0 mm | - | - | - |
| 1778150766 | 14.44° C | 60% | 101.6 hPa | 0 mm | - | - | - |
| 1778149266 | 15° C | 67% | 101.6 hPa | 0 mm | - | - | - |
| 1778147766 | 13.89° C | 63% | 101.6 hPa | 0 mm | - | - | - |
| 1778146266 | 13.33° C | 65% | 101.6 hPa | 0 mm | - | - | - |
| 1778144767 | 12.78° C | 75% | 101.6 hPa | 0 mm | - | - | - |
| 1778143266 | 12.78° C | 70% | 101.6 hPa | 0 mm | - | - | - |
| 1778141766 | 12.22° C | 83% | 101.5 hPa | 0 mm | - | - | - |
| 1778140266 | 11.11° C | 77% | 101.6 hPa | 0 mm | - | - | - |
| 1778138766 | 10° C | 88% | 101.5 hPa | 0 mm | - | - | - |
| 1778137265 | 9.44° C | 84% | 101.6 hPa | 0 mm | - | - | - |
| 1778135765 | 9.44° C | 84% | 101.6 hPa | 0 mm | - | - | - |
| 1778134265 | 8.89° C | 91% | 101.5 hPa | 0 mm | - | - | - |
| 1778132765 | 8.89° C | 87% | 101.5 hPa | 0 mm | - | - | - |
| 1778131266 | 8.33° C | 92% | 101.4 hPa | 0 mm | - | - | - |
| 1778129766 | 8.33° C | 90% | 101.5 hPa | 0 mm | - | - | - |
| 1778128266 | 8.33° C | 90% | 101.5 hPa | 0 mm | - | - | - |
| 1778126766 | 7.78° C | 92% | 101.4 hPa | 0 mm | - | - | - |
| 1778125266 | 7.78° C | 91% | 101.4 hPa | 0 mm | - | - | - |
| 1778123765 | 7.78° C | 91% | 101.4 hPa | 0 mm | - | - | - |
| 1778122265 | 7.78° C | 91% | 101.4 hPa | 0 mm | - | - | - |
| 1778120765 | 8.89° C | 91% | 101.4 hPa | 0 mm | - | - | - |
| 1778119265 | 8.33° C | 91% | 101.4 hPa | 0 mm | - | - | - |
* Rain latest hour (hover to see other rain measurements)
** Current wind speed in m/s (hover to see current wind gust speed)